Regional Weather Roundup
Issued by NWS

Home | Current Version | Previous Version | Graphics & Text | Print | Product List | Glossary On
Versions: 1 2 3 4 5 6 7 8 9 10 11 12 13 14 15 16 17 18 19 20 21 22 23 24 25 26 27 28 29 30 31 32 33 34 35 36 37 38 39 40 41 42 43 44 45 46 47 48 49 50
000
ASUS45 KBOU 291107
RWRCO

WEATHER ROUNDUP FOR COLORADO
NATIONAL WEATHER SERVICE DENVER/BOULDER CO
500 AM MDT SUN MAR 29 2015

NOTE: "FAIR" INDICATES FEW OR NO CLOUDS BELOW 12000 FEET WITH NO
SIGNIFICANT WEATHER AND/OR OBSTRUCTIONS TO VISIBILITY.

COZ001>005-013-030-031-291200-
...NORTHWEST COLORADO...

CITY           SKY/WX    TMP DP  RH WIND       PRES   REMARKS
CRAIG          CLEAR     34  20  56 S8        30.28R WCI  27
HAYDEN         CLEAR     37  16  41 S7        30.28R
MEEKER         CLEAR     32  18  56 E6        30.29R WCI  26
MOUNT WERNER   NOT AVBL
STEAMBOAT SPGS CLEAR     33  20  59 E6        30.28R WCI  28
WALDEN         CLEAR     30  18  59 W3        30.27R
$$

COZ006>008-011-291200-
...WEST CENTRAL VALLEYS...

CITY           SKY/WX    TMP DP  RH WIND       PRES   REMARKS
GRAND JUNCTION PTCLDY    46  15  28 NE12      30.15R
MONTROSE       MOCLDY    50  26  39 SE8       30.22S
EAGLE          PTCLDY    39  25  56 E7        30.27S
RIFLE          CLEAR     42  19  39 VRB5      30.23R
DELTA          MOCLDY    48  26  41 CALM      30.17S
NUCLA          MOCLDY    41  21  45 SE8       30.24F
$$

COZ017>023-064>068-291200-
...SOUTHWEST COLORADO...

CITY           SKY/WX    TMP DP  RH WIND       PRES   REMARKS
DURANGO        CLEAR     33  23  66 NE6       30.21S WCI  28
CORTEZ         CLEAR     33  20  58 E8        30.20S WCI  26
PAGOSA SPRINGS CLEAR     33  24  69 CALM      30.26S
TELLURIDE      NOT AVBL
WOLF CREEK PAS PTCLDY    32  14  47 SW15      30.45S WCI  22
$$

COZ009-010-012-014-032>034-037-058>063-291200-
...CENTRAL COLORADO...

CITY           SKY/WX    TMP DP  RH WIND       PRES   REMARKS
ASPEN          PTCLDY    36  27  69 CALM      30.28R
BUENA VISTA    PTCLDY    40  26  59 NW13      30.25R
COPPER MTN     PTCLDY    30  10  43 W14       30.40S WCI  20
BERTHOUD PASS  FAIR      21  14  73 NW23G31   30.39R WCI   5
COTTONWOOD PAS PTCLDY    43  18  36 N9G33     30.29R
GUNNISON       MOCLDY    39  25  56 S6        30.31R
KREMMLING      CLEAR     37   9  30 CALM      30.29R
LEADVILLE      CLOUDY    30  26  85 N9        30.33R WCI  22
SALIDA         PTCLDY    45  28  51 W10       30.30S
SUNLIGHT       PTCLDY    36   1  23 NW7       30.42R
WILKERSON PASS PTCLDY    30  14  51 NW17G28   30.36R WCI  18
$$

COZ069>075-291200-
...SAN LUIS VALLEY/SANGRE DE CRISTO MOUNTAINS...

CITY           SKY/WX    TMP DP  RH WIND       PRES   REMARKS
ALAMOSA        PTCLDY    32  19  58 CALM      30.23R
LA VETA PASS   CLEAR     37  18  44 SW6       30.31R
SAGUACHE       PTCLDY    43  30  61 NW15      30.26S
$$

COZ035-036-038>040-291200-
...NORTHERN COLORADO FRONT RANGE...

CITY           SKY/WX    TMP DP  RH WIND       PRES   REMARKS
DENVER INTL AP PTCLDY    39  29  67 E10       30.14R
DMNS CITY PARK   N/A     46  27  47 E10G16    30.14S
AURORA         NOT AVBL
FRONT RANGE AP CLEAR     41  32  70 E8        30.16R
ERIE MUNI ARPT CLEAR     46  27  47 SE3       30.14R
BOULDER MUN AP CLEAR     55  12  18 NW8G23    30.11R
CENTENNIAL     PTCLDY    44  28  53 E3        30.15R
BROOMFIELD     CLEAR     45  25  45 E10       30.14S
FORT COLLINS   CLEAR     52  16  24 N10       30.14R
LONGMONT       CLEAR     48  24  39 E8        30.15R
$$

COZ041-046-047-076>085-087-088-291200-
...PIKES PEAK/PALMER DIVIDE AND SOUTHERN FOOTHILLS...

CITY           SKY/WX    TMP DP  RH WIND       PRES   REMARKS
COLO. SPRINGS  CLEAR     51  28  41 NE17      30.14R
A. F. ACADEMY  CLEAR     44  26  49 N8        30.15R
ELLICOTT       CLEAR    N/A N/A N/A N10       30.13R
FALCON         CLEAR     49  23  36 NW12      30.17R
FORT CARSON    CLEAR     53  28  38 N10       30.11R
LIMON          PTCLDY    43  25  49 N20       30.12R
MONUMENT HILL  CLEAR     37  27  65 NE8       30.19R
TRINIDAD       CLEAR     47  23  38 SW13      30.10R
$$

COZ042>045-048>051-090-091-291200-
...NORTHEAST COLORADO...

CITY           SKY/WX    TMP DP  RH WIND       PRES   REMARKS
GREELEY ARPT   CLEAR     45  19  36 NE10      30.13R
AKRON          CLEAR     43  24  47 N18       30.12R
BURLINGTON     PTCLDY    51  30  44 N23G31    30.04R
WRAY           CLEAR     46  29  52 NW9       30.09R
STERLING       CLEAR     43  21  42 N10       30.12R
HOLYOKE        NOT AVBL
FORT MORGAN    CLEAR    N/A N/A N/A N13G21    30.14R
$$

COZ086-089-092>099-291200-
...SOUTHEAST COLORADO...

CITY           SKY/WX    TMP DP  RH WIND       PRES   REMARKS
PUEBLO         CLEAR     50  28  42 NW5       30.06R
LA JUNTA       CLEAR     50  28  42 W5        30.05R
LAMAR          PTCLDY    56  31  38 N16       29.97R
SPRINGFIELD      N/A     55  26  32 NW20      30.00R
$$



USA.gov is the U.S. government's official web portal to all federal, state and local government web resources and services.